Location: Unspecified
(41.5000°N, 0.0000°E)
Time: 15:35:28
(UTC+00:00)

A-11 Canister half - Pass Details

Date: 30 June 2019
Orbit: 1526 x 1683 km, 47.3° (Epoch: 20 July)

Event Time Altitude Azimuth Distance (km) Brightness Sun altitude
Exits shadow 23:41:14 19° 121° (ESE) 3,140 10.3 -25.1°
Drops below altitude 10° 23:46:42 10° 86° (E) 3,765 11.0 -25.2°
Sets 23:50:53 0° 70° (ENE) 4,728 11.8 -25.3°
